Torna al catalogo

STARLINK-32463

AttivoComunicazioniVLEO
NORAD 62130·PAYLOAD·🇺🇸 United States

Lanciato Nov 27, 2024 da Cape Canaveral Space Force Station

Loading…

Prossimi Passaggi (prossime 24 ore)

TLE

AggiornatoSource: CelesTrak SupGP

Epoca: Sep 15, 2026, 03:34 UTC

1 62130C 24222S   26258.14909722  .00056917  00000+0  20615-2 0  2582
2 62130  43.0004 145.9924 0001269 276.5586 203.1827 15.27550503    13

Traccia STARLINK-32463 in tempo reale con AllMySat

Download on the App Store